STARLINK-5720, 55619

Orbit data source: Space-Track

STARLINK-5720, 55619 is a payload satellite owned by SpaceX/Seattle (US) in LEO that was launched on Sun, 12 Feb 2023 UTC via an FALCON 9 launch vehicle from the Air Force Eastern Test Range (AFETR). Payload-class satellites include a variety of spacecraft equipped with specific instruments for various scientific and technological missions. These include communications satellites like Starlink; space stations such as the ISS; scientific satellites like the Hubble; Earth observation satellites from companies like Planet Labs, Umbra, and HawkEye 360; GPS; miniature CubeSats for education and research; and military/defense satellites.

Loading next visibility...
Identifier
55619, 2023-020BC
Orbit
LEO
Country
Flag of USUS
Related business
Manufacturer
SpaceX/Seattle
Mission
Operational Commercial Communications
Bus & Motor
STARLINK, Unknown motor
Mass
305 kg wet, ~290 kg dry
Launch date (UTC)
2023-02-12 (4 years ago)
Launch vehicle
FALCON 9
Launch site
Air Force Eastern Test Range (AFETR)
Object type
Payload
Rocket body
Debris
Shape & HBR
Box + 1 Pan, 10.1 m
Radar Cross Section
13.562 m², Large (>1 m²)

Expand to show TLE details & history
Last TLE update: 1 day ago

TLE from 1 day ago
0 STARLINK-5720
1 55619U 23020BC  26264.67470758  .00000035  00000-0  10778-4 0  9992
2 55619  43.0035 327.3232 0000899 273.2582  86.8167 15.27577117199008
Epoch: 2026-09-21T16:11Z
TLE epoch observation values (Epoch: 2026-09-21T16:11:34.734Z)
Latitude
-0.00002°
Longitude
83.87731°
Altitude
482.799 km
Speed
7.626 km/s
True Right ascension
21h 49m 17s
True Declination
0° 00' 00"
Sunlit
Object was in full shadow at epoch
Visualization orbit readout
Latitude
Unknown
Longitude
Unknown
Altitude
Unknown
Speed
Unknown
Apparent Right ascension
Unknown
Apparent Declination
Unknown
Sunlit
N/A
Visualization observer readout
Local Sidereal Time
11:59:00
Azimuth
Unknown
Elevation
Unknown
Doppler factor
Unknown
Orbital elements
Apogee altitude
485.619 km
Perigee altitude
484.385 km
Semi-major axis
6,863.139 km
Eccentricity
0.00009
Inclination
43.0035°
RAAN
327.3232°
Arg. of periapsis
273.2582°
True anomaly
86.82699°
Mean anomaly
86.8167°
Eccentric anomaly
86.82184°
Mean motion
3.81732 °/min
Orbital period
94.31 mins
BSTAR
0.000010778
Loading maneuver chart data...
Computing Atmospheric mass density...
Loading historical data...
Loading historical data...
Loading historical data...
Loading historical data...
Loading historical data...
Loading historical data...
Loading historical data...

Documentation

Showing up to 5 results
|